Regional Weather Roundup
Issued by NWS Northern Indiana

Home | Current Version | Previous Version | Graphics & Text | Print | Product List | Glossary On
Versions: 1 2 3 4 5 6 7 8 9 10 11 12 13 14 15 16 17 18 19 20 21 22 23 24 25 26 27 28 29 30 31 32 33 34 35 36 37 38 39 40 41 42 43 44 45 46 47 48 49 50
000
ASUS43 KIWX 201510
RWRIWX

KIWX WEATHER ROUNDUP
NATIONAL WEATHER SERVICE NORTHERN INDIANA
1100 AM EDT FRI OCT 20 2017

NOTE: "FAIR" INDICATES FEW OR NO CLOUDS BELOW 12,000 FEET WITH NO
SIGNIFICANT WEATHER AND/OR OBSTRUCTIONS TO VISIBILITY.

* THESE STATIONS ARE NOT UNDER NWS QUALITY CONTROL. THEY ALSO MAY NOT
  REPORT WEATHER SUCH AS PRECIPITATION OR FOG.

INZ001>027-201600-
NORTHERN INDIANA

CITY           SKY/WX    TMP DP  RH WIND       PRES   REMARKS
GARY*          MOSUNNY   66  50  55 SW10      30.20F
VALPARAISO     SUNNY     65  53  65 S9        30.23S
MICHIGAN CITY* SUNNY     64  52  63 S6        30.22S
LAPORTE*       SUNNY     62  53  72 S7        30.23S
KNOX*          SUNNY     64  52  63 S9        30.23S
SOUTH BEND     SUNNY     64  53  67 S9        30.23F
ELKHART*       SUNNY     63  52  67 S5        30.24S
GOSHEN         SUNNY     65  52  62 S7        30.25S
MONTICELLO*    SUNNY     64  53  68 S8        30.24F
LOGANSPORT*    SUNNY     64  54  68 SW8       30.27S
WARSAW*        SUNNY     63  52  67 S3        30.26S
AUBURN*        SUNNY     63  50  63 S3        30.28S
FORT WAYNE     MOSUNNY   64  52  64 SW6       30.28S
HUNTINGTON*    SUNNY     63  54  71 CALM      30.28S
PERU/GRISSOM   SUNNY     65  55  69 S8        30.26S

$$
INZ028>050-201600-
CENTRAL INDIANA

CITY           SKY/WX    TMP DP  RH WIND       PRES   REMARKS
LAFAYETTE      SUNNY     66  55  67 SW5       30.25S
KOKOMO*        SUNNY     65  54  67 S6        30.28S
MUNCIE*        SUNNY     68  52  56 SW5       30.29S
INDIANAPOLIS   MOSUNNY   63  54  72 S3        30.29S

$$
MIZ043>046-050>051-056>058-064>065-071>073-077>080-201600-
SOUTHWEST LOWER MICHIGAN

CITY           SKY/WX    TMP DP  RH WIND       PRES   REMARKS
BATTLE CREEK   SUNNY     62  48  60 S9        30.24F
BENTON HARBOR  SUNNY     64  50  60 S8        30.21S
COLDWATER*     SUNNY     62  38  40 S5        30.26S
HILLSDALE*     SUNNY     61  32  33 S12       30.27F
HOLLAND        SUNNY     64  50  60 S9        30.20S
GRAND RAPIDS   MOSUNNY   64  49  57 S9        30.20F
KALAMAZOO      SUNNY     60  46  59 S10       30.24F
STURGIS*       SUNNY     61  49  65 S6        30.25S
THREE RIVERS*  FAIR      62  50  66 S7        30.25S

$$
OHZ001>008-015>018-024>025-201600-
NORTHWEST OHIO

CITY           SKY/WX    TMP DP  RH WIND       PRES   REMARKS
WAUSEON*       FAIR      63  37  39 S9        30.28F
DEFIANCE       SUNNY     62  40  44 S8        30.29S
FINDLAY        SUNNY     64  37  36 SE8       30.29S
TOLEDO EXPRESS SUNNY     62  40  44 VRB5      30.29S
TOLEDO METCALF SUNNY     62  41  46 S8        30.30S
LIMA           SUNNY     64  45  49 S8        30.30S

$$
AND FOR LAKE MICHIGAN COASTAL AND OPEN LAKE BUOY OBSERVATIONS

STATION/POSITION TEMP    WIND        PRES    VSBY  WAVE
                 AIR SEA DIR/SP/G                  HT/PER
                 (F)     (DEG/KT/KT) (MB)    (MI)  (FT/S)
CALUMET HARBOR    61     190/  6/ 10 1021.6
MICHIGAN CITY     61     160/ 11/ 16   N/A
BURNS HARBOR      60     180/ 12/ 16 1023.0
SAINT JOSEPH      60     150/  3/  7 1023.7
SOUTH LAKE BUOY   62 61  180/ 14/ 16 1021.6          2/ 4
4 MI NW BRIDGMAN  60 58  180/  8/ 10 1023.1F         1/ 3
MICHIGAN CITY     60 58  190/  8/ 12   N/A           1/ 2

$$
&&




USA.gov is the U.S. government's official web portal to all federal, state and local government web resources and services.